Location: Mococo
(38.0255°N, 122.1161°W)
Time: 20:05:52
(UTC+00:00)

Cosmos 2100 Rocket - Visible Passes

Search period start: 15 May 2026 00:00
Search period end: 25 May 2026 00:00
Orbit: 956 x 999 km, 82.9° (Epoch: 15 May)

Date Brightness Start Highest point End Pass type
(mag) Time Alt. Az. Time Alt. Az. Time Alt. Az.
15 May 4.7 04:14:45 10° SSW 04:20:51 58° W 04:27:04 10° N visible
16 May 5.8 04:41:32 10° SW 04:46:58 31° WNW 04:52:30 10° NNW visible
17 May 6.7 05:09:23 10° WSW 05:13:17 17° WNW 05:17:13 10° NNW visible
18 May 4.5 03:46:59 10° SSW 03:53:09 66° W 03:59:28 10° N visible
19 May 5.7 04:13:35 10° SW 04:19:14 36° WNW 04:25:00 10° N visible
20 May 6.7 04:41:09 10° WSW 04:45:30 19° WNW 04:49:55 10° NNW visible
22 May 5.6 03:45:40 10° SSW 03:51:31 41° WNW 03:57:27 10° N visible
23 May 6.7 04:12:59 10° WSW 04:17:45 22° WNW 04:22:33 10° NNW visible
24 May 7.2 04:42:11 10° W 04:44:12 11° WNW 04:46:12 10° NW visible
